Location: Kiltepe
(36.4752°N, 30.0120°E)
Time: 16:56:36
(UTC+00:00)

Cosmos 1821 Rocket - Pass Details

Date: 03 August 2024
Orbit: 943 x 1005 km, 82.9° (Epoch: 19 September)

Event Time Altitude Azimuth Distance (km) Brightness Sun altitude
Rises 17:40:22 0° 167° (SSE) 3,696 6.6 -7.5°
Reaches altitude 10° 17:42:58 10° 162° (SSE) 2,757 5.9 -8.0°
Maximum altitude 17:48:59 47° 90° (E) 1,301 4.3 -9.0°
Drops below altitude 10° 17:55:04 10° 19° (NNE) 2,785 6.5 -10.1°
Sets 17:57:41 0° 14° (NNE) 3,738 7.3 -10.6°
